sat.trackr.live / text

‹ back to catalog

STARLINK-34776

NORAD 65037 · 2025-161Y

PAYLOAD ACTIVE UNKNOWN

§ Identity

Operator
Country
US
Launch date
2025-07-30
Launch site
AFWTR
Launch vehicle
Mass (kg)
RCS (m²)

Purposes: comms

External: N2YO · Heavens-Above · Gunter

§ Orbital elements

Epoch: 2026-05-25T03:31:46.455744Z

Period
94.10 min
Inclination
53.1626°
Eccentricity
0.0001467
Mean motion
15.30206416 rev/d
Perigee alt
474.2 km
Apogee alt
476.2 km
Semi-major
6,853.3 km
B*
2.9809e-4
RAAN
299.2122°
Arg perigee
97.7413°
Mean anomaly
262.3754°
Rev number
4,593

§ Raw data

STARLINK-347761 65037U 25161Y   26145.14706546  .00008481  00000+0  29809-3 0  99982 65037  53.1626 299.2122 0001467  97.7413 262.3754 15.30206416 45930

JSON: /api/v1/satellites/65037 · /tle

For live sub-satellite position, see the globe view (requires WebGL).

§ Visibility from observer

Set your observer location to see the next 7 days of passes ≥ 10°. The values pass through the URL so the page stays shareable.

No JS? Fill the form by hand. The geolocation button needs JavaScript.